Tracking 19562 objects as of 23-Mar-2019
HD Live streaming from Space Station
objects crossing your sky now

FLOCK 3K 7

Track FLOCK 3K 7 now!
10-day predictions
FLOCK 3K 7 is classified as:


NORAD ID: 43902
Int'l Code: 2018-111AC
Perigee: 486.0 km
Apogee: 515.5 km
Inclination: 97.3 °
Period: 94.5 minutes
Semi major axis: 6871 km
RCS: Unknown
Launch date: December 27, 2018
Source: United States (US)
Launch site: VOSTOCHNY COSMODROME (VOSTO)
aabbcc
Your satellite tracking list
Your tracking list is empty




NASA's NSSDC Master Catalog

Two Line Element Set (TLE):
1 43902U 18111AC  19082.17129404  .00002353  00000-0  99313-4 0  9990
2 43902  97.2958 349.7557 0021458 304.1992  55.7211 15.24056113 13113
Source of the keplerian elements: AFSPC